Location: Bacharowice
(49.9333°N, 19.5833°E)
Time: 09:16:48
(UTC+00:00)

Cosmos 1908 Rocket - Pass Details

Date: 29 September 2021
Orbit: 605 x 633 km, 82.5° (Epoch: 27 October)

Event Time Altitude Azimuth Distance (km) Brightness Sun altitude
Rises 17:48:54 0° 210° (SSW) 2,917 7.2 -14.4°
Reaches altitude 10° 17:51:16 10° 219° (SW) 2,012 6.5 -14.7°
Maximum altitude 17:55:25 37° 287° (WNW) 987 5.3 -15.4°
Drops below altitude 10° 17:59:35 10° 356° (N) 2,016 6.4 -16.0°
Sets 18:01:58 0° 4° (N) 2,923 7.2 -16.4°
